Location: Noordwijk
(52.2400°N, 4.4500°E)
Time: 00:41:54
(UTC+00:00)

CAS-4B - Pass Details

Date: 08 December 2022
Orbit: 515 x 531 km, 43.0° (Epoch: 26 January)

Event Time Altitude Azimuth Distance (km) Brightness Sun altitude
Exits shadow 05:58:45 - 229° (SW) 2,130 ? -14.1°
Reaches altitude 10° 05:59:52 10° 221° (SW) 1,773 ? -14.0°
Maximum altitude 06:02:56 21° 172° (S) 1,230 ? -13.5°
Drops below altitude 10° 06:06:02 10° 122° (ESE) 1,783 ? -13.1°
Sets 06:08:40 0° 106° (ESE) 2,678 ? -12.7°
